| time (UTC) | temp F | wind direction | speed MPH | gust MPH | rain 1hr in | rain 24hr in | rain mn in | humidity % | barometer mb |
| 20260903205004 | 98 | 101 | 2.0 | 9.0 | 0.00 | 0.03 | 0.00 | 49 | 1011.7 |
| 20260903204504 | 99 | 90 | 2.0 | 7.0 | 0.00 | 0.03 | 0.00 | 48 | 1011.7 |
| 20260903203504 | 98 | 106 | 2.0 | 7.0 | 0.00 | 0.03 | 0.00 | 50 | 1011.8 |
| 20260903203005 | 98 | 166 | 2.0 | 8.0 | 0.00 | 0.03 | 0.00 | 49 | 1011.9 |
| 20260903202504 | 98 | 149 | 2.0 | 8.0 | 0.00 | 0.03 | 0.00 | 49 | 1012.0 |
| 20260903202004 | 99 | 97 | 2.0 | 8.0 | 0.00 | 0.03 | 0.00 | 49 | 1012.2 |
| 20260903201504 | 99 | 89 | 3.0 | 8.0 | 0.00 | 0.03 | 0.00 | 49 | 1012.2 |
| 20260903201004 | 99 | 96 | 2.0 | 8.0 | 0.00 | 0.03 | 0.00 | 49 | 1012.2 |
| 20260903200504 | 98 | 95 | 2.0 | 7.0 | 0.00 | 0.03 | 0.00 | 50 | 1012.2 |
| 20260903200004 | 98 | 86 | 2.0 | 7.0 | 0.00 | 0.03 | 0.00 | 51 | 1012.2 |
| 20260903195504 | 97 | 76 | 2.0 | 7.0 | 0.00 | 0.03 | 0.00 | 51 | 1012.3 |
| 20260903195004 | 97 | 72 | 1.0 | 5.0 | 0.00 | 0.03 | 0.00 | 53 | 1012.4 |
| 20260903194504 | 96 | 90 | 1.0 | 5.0 | 0.00 | 0.03 | 0.00 | 53 | 1012.4 |
| 20260903194004 | 96 | 115 | 1.0 | 5.0 | 0.00 | 0.03 | 0.00 | 53 | 1012.5 |
| 20260903193504 | 96 | 141 | 1.0 | 5.0 | 0.00 | 0.03 | 0.00 | 52 | 1012.5 |
| 20260903192504 | 95 | 168 | 1.0 | 3.0 | 0.00 | 0.03 | 0.00 | 54 | 1012.6 |
| 20260903192003 | 95 | 168 | 1.0 | 3.0 | 0.00 | 0.03 | 0.00 | 55 | 1012.8 |
| 20260903191504 | 95 | 168 | 1.0 | 3.0 | 0.00 | 0.03 | 0.00 | 54 | 1012.8 |
| 20260903191004 | 94 | 167 | 1.0 | 3.0 | 0.00 | 0.03 | 0.00 | 54 | 1013.0 |
| 20260903190504 | 94 | 161 | 1.0 | 4.0 | 0.00 | 0.03 | 0.00 | 53 | 1013.0 |
| 20260903190004 | 95 | 108 | 1.0 | 4.0 | 0.00 | 0.03 | 0.00 | 54 | 1013.2 |
| 20260903185504 | 95 | 81 | 1.0 | 6.0 | 0.00 | 0.03 | 0.00 | 55 | 1013.3 |
| 20260903185004 | 94 | 126 | 2.0 | 6.0 | 0.00 | 0.03 | 0.00 | 55 | 1013.3 |
| 20260903184504 | 94 | 158 | 2.0 | 4.0 | 0.00 | 0.03 | 0.00 | 57 | 1013.4 |
| 20260903184005 | 94 | 151 | 1.0 | 4.0 | 0.00 | 0.03 | 0.00 | 57 | 1013.5 |
| 20260903183504 | 94 | 149 | 1.0 | 3.0 | 0.00 | 0.03 | 0.00 | 56 | 1013.6 |
| 20260903183004 | 94 | 149 | 1.0 | 4.0 | 0.00 | 0.03 | 0.00 | 58 | 1013.6 |
| 20260903182504 | 93 | 145 | 1.0 | 4.0 | 0.00 | 0.03 | 0.00 | 56 | 1013.7 |
| 20260903182004 | 93 | 126 | 1.0 | 4.0 | 0.00 | 0.03 | 0.00 | 58 | 1013.8 |
| 20260903181503 | 93 | 124 | 1.0 | 4.0 | 0.00 | 0.03 | 0.00 | 57 | 1013.9 |
| 20260903180504 | 93 | 150 | 1.0 | 4.0 | 0.00 | 0.03 | 0.00 | 56 | 1014.0 |
| 20260903180004 | 93 | 116 | 1.0 | 4.0 | 0.00 | 0.03 | 0.00 | 57 | 1014.2 |
| 20260903175004 | 94 | 78 | 2.0 | 6.0 | 0.00 | 0.03 | 0.00 | 55 | 1014.2 |
| 20260903174504 | 94 | 69 | 1.0 | 6.0 | 0.00 | 0.03 | 0.00 | 57 | 1014.2 |
| 20260903173504 | 94 | 119 | 2.0 | 6.0 | 0.00 | 0.03 | 0.00 | 57 | 1014.2 |
| 20260903173003 | 94 | 183 | 2.0 | 6.0 | 0.00 | 0.03 | 0.00 | 58 | 1014.2 |
| 20260903172504 | 93 | 200 | 2.0 | 6.0 | 0.00 | 0.03 | 0.00 | 57 | 1014.2 |
| 20260903172004 | 93 | 213 | 2.0 | 6.0 | 0.00 | 0.03 | 0.00 | 60 | 1014.4 |
| 20260903171504 | 92 | 218 | 2.0 | 6.0 | 0.00 | 0.03 | 0.00 | 61 | 1014.3 |
| 20260903171004 | 92 | 206 | 2.0 | 6.0 | 0.00 | 0.03 | 0.00 | 60 | 1014.4 |
| 20260903170504 | 91 | 235 | 1.0 | 6.0 | 0.00 | 0.03 | 0.00 | 60 | 1014.3 |
| 20260903165004 | 90 | 173 | 2.0 | 6.0 | 0.00 | 0.03 | 0.00 | 62 | 1014.4 |
| 20260903164504 | 90 | 172 | 1.0 | 3.0 | 0.00 | 0.03 | 0.00 | 64 | 1014.4 |
| 20260903163504 | 90 | 199 | 1.0 | 5.0 | 0.00 | 0.03 | 0.00 | 64 | 1014.5 |
| 20260903163004 | 90 | 196 | 2.0 | 5.0 | 0.00 | 0.03 | 0.00 | 65 | 1014.4 |
| 20260903162504 | 90 | 194 | 2.0 | 7.0 | 0.00 | 0.03 | 0.00 | 66 | 1014.5 |
| 20260903162003 | 89 | 186 | 2.0 | 7.0 | 0.00 | 0.03 | 0.00 | 66 | 1014.5 |
| 20260903161504 | 89 | 196 | 2.0 | 7.0 | 0.00 | 0.03 | 0.00 | 66 | 1014.6 |
| 20260903161004 | 89 | 219 | 1.0 | 6.0 | 0.00 | 0.03 | 0.00 | 67 | 1014.6 |
| 20260903160003 | 88 | 202 | 2.0 | 7.0 | 0.00 | 0.03 | 0.00 | 70 | 1014.5 |
| 20260903155504 | 87 | 199 | 2.0 | 7.0 | 0.00 | 0.03 | 0.00 | 71 | 1014.4 |
| 20260903155004 | 87 | 210 | 2.0 | 8.0 | 0.00 | 0.03 | 0.00 | 72 | 1014.5 |
| 20260903154503 | 86 | 205 | 2.0 | 8.0 | 0.00 | 0.03 | 0.00 | 71 | 1014.5 |
| 20260903154004 | 86 | 185 | 2.0 | 8.0 | 0.00 | 0.03 | 0.00 | 71 | 1014.5 |
| 20260903153504 | 86 | 209 | 2.0 | 8.0 | 0.00 | 0.03 | 0.00 | 72 | 1014.5 |
| 20260903153004 | 86 | 203 | 2.0 | 8.0 | 0.00 | 0.03 | 0.00 | 73 | 1014.5 |
| 20260903152503 | 86 | 187 | 1.0 | 7.0 | 0.00 | 0.03 | 0.00 | 73 | 1014.6 |
| 20260903152004 | 86 | 189 | 1.0 | 5.0 | 0.00 | 0.03 | 0.00 | 74 | 1014.5 |
| 20260903151504 | 86 | 175 | 1.0 | 7.0 | 0.00 | 0.03 | 0.00 | 75 | 1014.4 |
| 20260903151004 | 86 | 184 | 1.0 | 7.0 | 0.00 | 0.03 | 0.00 | 75 | 1014.4 |
| 20260903150504 | 86 | 193 | 2.0 | 6.0 | 0.00 | 0.03 | 0.00 | 75 | 1014.3 |
| 20260903150004 | 86 | 193 | 2.0 | 9.0 | 0.00 | 0.03 | 0.00 | 75 | 1014.3 |
| 20260903145504 | 86 | 188 | 3.0 | 9.0 | 0.00 | 0.03 | 0.00 | 75 | 1014.4 |
| 20260903145004 | 85 | 185 | 3.0 | 11.0 | 0.00 | 0.03 | 0.00 | 77 | 1014.4 |
| 20260903144504 | 85 | 194 | 3.0 | 11.0 | 0.00 | 0.03 | 0.00 | 77 | 1014.4 |
| 20260903143004 | 84 | 196 | 2.0 | 10.0 | 0.00 | 0.03 | 0.00 | 79 | 1014.5 |
| 20260903142504 | 84 | 193 | 1.0 | 5.0 | 0.00 | 0.03 | 0.00 | 80 | 1014.5 |
| 20260903142004 | 84 | 178 | 2.0 | 11.0 | 0.00 | 0.03 | 0.00 | 81 | 1014.4 |
| 20260903141504 | 83 | 173 | 2.0 | 11.0 | 0.00 | 0.03 | 0.00 | 82 | 1014.4 |
| 20260903141004 | 83 | 181 | 2.0 | 6.0 | 0.00 | 0.03 | 0.00 | 82 | 1014.5 |
| 20260903140504 | 82 | 190 | 2.0 | 6.0 | 0.00 | 0.03 | 0.00 | 83 | 1014.6 |
| 20260903140004 | 82 | 195 | 3.0 | 12.0 | 0.00 | 0.03 | 0.00 | 83 | 1014.4 |
| 20260903135504 | 82 | 197 | 3.0 | 12.0 | 0.00 | 0.03 | 0.00 | 83 | 1014.5 |
| 20260903135004 | 82 | 191 | 3.0 | 6.0 | 0.00 | 0.03 | 0.00 | 84 | 1014.4 |
| 20260903134504 | 82 | 190 | 2.0 | 8.0 | 0.00 | 0.03 | 0.00 | 84 | 1014.4 |
| 20260903134003 | 82 | 193 | 2.0 | 8.0 | 0.00 | 0.03 | 0.00 | 85 | 1014.5 |
| 20260903133504 | 81 | 194 | 1.0 | 6.0 | 0.00 | 0.03 | 0.00 | 85 | 1014.4 |
| 20260903132504 | 81 | 204 | 1.0 | 6.0 | 0.00 | 0.03 | 0.00 | 87 | 1014.5 |
| 20260903132004 | 80 | 200 | 1.0 | 7.0 | 0.00 | 0.03 | 0.00 | 87 | 1014.5 |
| 20260903131504 | 80 | 194 | 1.0 | 7.0 | 0.00 | 0.03 | 0.00 | 87 | 1014.5 |
| 20260903130504 | 80 | 196 | 1.0 | 5.0 | 0.00 | 0.03 | 0.00 | 88 | 1014.4 |
| 20260903130004 | 80 | 193 | 1.0 | 5.0 | 0.00 | 0.03 | 0.00 | 88 | 1014.5 |
| 20260903125504 | 80 | 192 | 1.0 | 5.0 | 0.00 | 0.03 | 0.00 | 88 | 1014.4 |
| 20260903125004 | 79 | 197 | 1.0 | 5.0 | 0.00 | 0.03 | 0.00 | 88 | 1014.4 |
| 20260903124503 | 79 | 203 | 1.0 | 4.0 | 0.00 | 0.03 | 0.00 | 89 | 1014.4 |
| 20260903124004 | 79 | 198 | 1.0 | 4.0 | 0.00 | 0.03 | 0.00 | 89 | 1014.2 |
| 20260903123504 | 79 | 194 | 1.0 | 3.0 | 0.00 | 0.03 | 0.00 | 89 | 1014.2 |
| 20260903123004 | 79 | 0 | 0.0 | 3.0 | 0.00 | 0.03 | 0.00 | 89 | 1014.2 |
| 20260903122504 | 79 | 0 | 0.0 | 5.0 | 0.00 | 0.03 | 0.00 | 89 | 1014.2 |
| 20260903121504 | 79 | 0 | 0.0 | 6.0 | 0.00 | 0.03 | 0.00 | 89 | 1014.1 |
| 20260903121004 | 79 | 0 | 0.0 | 4.0 | 0.00 | 0.03 | 0.00 | 89 | 1014.1 |
| 20260903120503 | 79 | 0 | 0.0 | 4.0 | 0.00 | 0.03 | 0.00 | 89 | 1014.0 |
| 20260903120004 | 79 | 0 | 0.0 | 7.0 | 0.00 | 0.03 | 0.00 | 89 | 1014.1 |
| 20260903115504 | 79 | 0 | 0.0 | 7.0 | 0.00 | 0.03 | 0.00 | 89 | 1014.1 |
| 20260903115004 | 79 | 0 | 0.0 | 5.0 | 0.00 | 0.03 | 0.00 | 89 | 1014.0 |
| 20260903114503 | 79 | 204 | 1.0 | 5.0 | 0.00 | 0.03 | 0.00 | 89 | 1014.0 |
| 20260903114004 | 79 | 212 | 1.0 | 4.0 | 0.00 | 0.03 | 0.00 | 89 | 1014.1 |
| 20260903113504 | 79 | 210 | 1.0 | 4.0 | 0.00 | 0.03 | 0.00 | 89 | 1014.0 |
| 20260903113003 | 79 | 206 | 1.0 | 6.0 | 0.00 | 0.03 | 0.00 | 89 | 1013.9 |
| 20260903112503 | 79 | 203 | 1.0 | 6.0 | 0.00 | 0.03 | 0.00 | 89 | 1013.9 |
| 20260903112004 | 79 | 201 | 1.0 | 6.0 | 0.00 | 0.03 | 0.00 | 89 | 1013.9 |
| 20260903111504 | 80 | 194 | 1.0 | 6.0 | 0.00 | 0.03 | 0.00 | 89 | 1013.9 |
| 20260903111003 | 80 | 193 | 1.0 | 6.0 | 0.00 | 0.03 | 0.00 | 89 | 1014.0 |
| 20260903110504 | 80 | 194 | 1.0 | 4.0 | 0.00 | 0.03 | 0.00 | 89 | 1013.9 |
| 20260903104504 | 80 | 224 | 1.0 | 6.0 | 0.00 | 0.03 | 0.00 | 89 | 1013.8 |
| 20260903104005 | 80 | 215 | 1.0 | 6.0 | 0.00 | 0.03 | 0.00 | 89 | 1013.6 |
| 20260903103504 | 79 | 201 | 1.0 | 4.0 | 0.00 | 0.03 | 0.00 | 89 | 1013.6 |
| 20260903103003 | 79 | 0 | 0.0 | 4.0 | 0.00 | 0.03 | 0.00 | 89 | 1013.6 |
| 20260903102504 | 79 | 198 | 1.0 | 5.0 | 0.00 | 0.03 | 0.00 | 89 | 1013.6 |
| 20260903102004 | 79 | 194 | 1.0 | 5.0 | 0.00 | 0.03 | 0.00 | 89 | 1013.7 |
| 20260903101504 | 79 | 184 | 1.0 | 4.0 | 0.00 | 0.03 | 0.00 | 89 | 1013.5 |
| 20260903101003 | 79 | 194 | 1.0 | 6.0 | 0.00 | 0.03 | 0.00 | 88 | 1013.5 |
| 20260903100004 | 79 | 240 | 1.0 | 6.0 | 0.00 | 0.03 | 0.00 | 88 | 1013.6 |
| 20260903095504 | 79 | 221 | 1.0 | 6.0 | 0.00 | 0.03 | 0.00 | 88 | 1013.6 |
| 20260903095003 | 79 | 200 | 1.0 | 5.0 | 0.00 | 0.03 | 0.00 | 88 | 1013.6 |
| 20260903094504 | 79 | 198 | 1.0 | 4.0 | 0.00 | 0.03 | 0.00 | 88 | 1013.7 |
| 20260903094004 | 80 | 209 | 1.0 | 5.0 | 0.00 | 0.03 | 0.00 | 88 | 1013.8 |
| 20260903093004 | 80 | 205 | 1.0 | 4.0 | 0.00 | 0.03 | 0.00 | 88 | 1013.8 |
| 20260903092504 | 80 | 215 | 1.0 | 4.0 | 0.00 | 0.03 | 0.00 | 88 | 1013.8 |
| 20260903092004 | 80 | 218 | 1.0 | 5.0 | 0.00 | 0.03 | 0.00 | 87 | 1013.8 |
| 20260903091503 | 80 | 195 | 1.0 | 5.0 | 0.00 | 0.03 | 0.00 | 87 | 1013.9 |
| 20260903091004 | 80 | 190 | 1.0 | 4.0 | 0.00 | 0.03 | 0.00 | 87 | 1014.0 |
| 20260903090504 | 80 | 193 | 1.0 | 6.0 | 0.00 | 0.03 | 0.00 | 87 | 1013.9 |
| 20260903090004 | 80 | 200 | 1.0 | 6.0 | 0.00 | 0.03 | 0.00 | 87 | 1014.0 |
| 20260903085004 | 80 | 192 | 1.0 | 5.0 | 0.00 | 0.03 | 0.00 | 87 | 1014.0 |
| 20260903084004 | 80 | 187 | 2.0 | 6.0 | 0.00 | 0.03 | 0.00 | 86 | 1014.0 |
| 20260903083503 | 80 | 201 | 1.0 | 5.0 | 0.00 | 0.03 | 0.00 | 86 | 1014.0 |
| 20260903083004 | 80 | 224 | 1.0 | 7.0 | 0.00 | 0.03 | 0.00 | 86 | 1014.1 |
| 20260903082504 | 80 | 224 | 1.0 | 7.0 | 0.00 | 0.03 | 0.00 | 86 | 1013.9 |
| 20260903082004 | 80 | 217 | 1.0 | 7.0 | 0.00 | 0.03 | 0.00 | 86 | 1013.9 |
| 20260903081503 | 80 | 214 | 2.0 | 7.0 | 0.00 | 0.03 | 0.00 | 86 | 1013.9 |
| 20260903080504 | 80 | 189 | 1.0 | 5.0 | 0.00 | 0.03 | 0.00 | 85 | 1013.9 |
| 20260903075503 | 80 | 175 | 1.0 | 4.0 | 0.00 | 0.03 | 0.00 | 85 | 1013.9 |
| 20260903075004 | 80 | 183 | 1.0 | 4.0 | 0.00 | 0.03 | 0.00 | 85 | 1014.0 |
| 20260903074504 | 80 | 211 | 1.0 | 4.0 | 0.00 | 0.03 | 0.00 | 84 | 1014.0 |
| 20260903073503 | 81 | 235 | 1.0 | 8.0 | 0.00 | 0.03 | 0.00 | 84 | 1014.0 |
| 20260903073004 | 81 | 210 | 1.0 | 7.0 | 0.00 | 0.03 | 0.00 | 83 | 1014.1 |
| 20260903072504 | 81 | 197 | 1.0 | 5.0 | 0.00 | 0.03 | 0.00 | 83 | 1014.1 |
| 20260903072003 | 81 | 194 | 1.0 | 4.0 | 0.00 | 0.03 | 0.00 | 82 | 1014.1 |
| 20260903071004 | 81 | 208 | 1.0 | 8.0 | 0.00 | 0.03 | 0.00 | 81 | 1014.2 |
| 20260903070504 | 81 | 217 | 1.0 | 8.0 | 0.00 | 0.03 | 0.00 | 81 | 1014.2 |
| 20260903070004 | 81 | 209 | 1.0 | 6.0 | 0.00 | 0.03 | 0.00 | 81 | 1014.1 |
| 20260903065004 | 82 | 223 | 1.0 | 7.0 | 0.00 | 0.03 | 0.00 | 80 | 1014.2 |
| 20260903064504 | 82 | 219 | 1.0 | 7.0 | 0.00 | 0.03 | 0.00 | 79 | 1014.3 |
| 20260903064003 | 82 | 208 | 1.0 | 6.0 | 0.00 | 0.03 | 0.00 | 79 | 1014.2 |
| 20260903063503 | 82 | 221 | 1.0 | 6.0 | 0.00 | 0.03 | 0.00 | 78 | 1014.3 |
| 20260903063004 | 82 | 246 | 1.0 | 5.0 | 0.00 | 0.03 | 0.00 | 78 | 1014.4 |
| 20260903062529 | 82 | 242 | 1.0 | 7.0 | 0.00 | 0.03 | 0.00 | 78 | 1014.4 |
| 20260903062004 | 82 | 230 | 1.0 | 7.0 | 0.00 | 0.03 | 0.00 | 77 | 1014.4 |
| 20260903061504 | 82 | 226 | 1.0 | 5.0 | 0.00 | 0.03 | 0.00 | 77 | 1014.4 |
| 20260903061003 | 82 | 233 | 1.0 | 5.0 | 0.00 | 0.03 | 0.00 | 77 | 1014.4 |
| 20260903060504 | 82 | 220 | 1.0 | 7.0 | 0.00 | 0.03 | 0.00 | 76 | 1014.4 |
| 20260903054504 | 82 | 149 | 1.0 | 5.0 | 0.00 | 0.03 | 0.00 | 77 | 1014.2 |
| 20260903054004 | 81 | 146 | 1.0 | 3.0 | 0.00 | 0.03 | 0.00 | 78 | 1014.1 |
| 20260903053504 | 81 | 135 | 1.0 | 4.0 | 0.00 | 0.03 | 0.00 | 78 | 1014.0 |
| 20260903053003 | 81 | 116 | 1.0 | 4.0 | 0.00 | 0.03 | 0.00 | 79 | 1014.1 |
| 20260903052504 | 80 | 99 | 1.0 | 6.0 | 0.00 | 0.03 | 0.00 | 80 | 1014.1 |
| 20260903051503 | 80 | 106 | 1.0 | 4.0 | 0.00 | 0.03 | 0.00 | 82 | 1014.2 |
| 20260903051004 | 79 | 0 | 0.0 | 4.0 | 0.00 | 0.03 | 0.00 | 83 | 1014.2 |
| 20260903050504 | 79 | 0 | 0.0 | 2.0 | 0.00 | 0.03 | 0.00 | 83 | 1014.2 |
| 20260903045504 | 79 | 0 | 0.0 | 1.0 | 0.00 | 0.03 | 0.03 | 83 | 1014.2 |
| 20260903045003 | 79 | 0 | 0.0 | 2.0 | 0.00 | 0.03 | 0.03 | 83 | 1014.2 |
| 20260903044004 | 80 | 0 | 0.0 | 3.0 | 0.00 | 0.03 | 0.03 | 82 | 1014.1 |
| 20260903043504 | 80 | 0 | 0.0 | 4.0 | 0.00 | 0.03 | 0.03 | 82 | 1014.2 |
| 20260903043003 | 80 | 0 | 0.0 | 4.0 | 0.00 | 0.03 | 0.03 | 81 | 1014.1 |
| 20260903042503 | 80 | 0 | 0.0 | 2.0 | 0.00 | 0.03 | 0.03 | 80 | 1014.1 |
| 20260903042004 | 80 | 0 | 0.0 | 4.0 | 0.00 | 0.03 | 0.03 | 80 | 1014.1 |
| 20260903041504 | 81 | 97 | 1.0 | 6.0 | 0.00 | 0.03 | 0.03 | 79 | 1014.1 |
| 20260903041003 | 81 | 91 | 1.0 | 6.0 | 0.00 | 0.03 | 0.03 | 79 | 1014.2 |
| 20260903040503 | 81 | 61 | 1.0 | 7.0 | 0.00 | 0.03 | 0.03 | 78 | 1014.2 |
| 20260903040004 | 81 | 53 | 1.0 | 7.0 | 0.00 | 0.03 | 0.03 | 77 | 1014.2 |
| 20260903035503 | 81 | 49 | 1.0 | 4.0 | 0.00 | 0.03 | 0.03 | 77 | 1014.2 |
| 20260903035004 | 82 | 82 | 2.0 | 5.0 | 0.00 | 0.03 | 0.03 | 76 | 1014.2 |
| 20260903034504 | 82 | 105 | 2.0 | 7.0 | 0.00 | 0.03 | 0.03 | 75 | 1014.2 |
| 20260903033004 | 84 | 95 | 3.0 | 9.0 | 0.00 | 0.03 | 0.03 | 71 | 1014.3 |
| 20260903032504 | 84 | 103 | 2.0 | 9.0 | 0.00 | 0.03 | 0.03 | 71 | 1014.2 |
| 20260903032003 | 84 | 113 | 1.0 | 4.0 | 0.00 | 0.03 | 0.03 | 72 | 1014.1 |
| 20260903031503 | 84 | 116 | 1.0 | 7.0 | 0.00 | 0.03 | 0.03 | 71 | 1014.0 |
| 20260903031004 | 84 | 120 | 1.0 | 7.0 | 0.00 | 0.03 | 0.03 | 71 | 1013.7 |
| 20260903025004 | 85 | 0 | 0.0 | 2.0 | 0.00 | 0.03 | 0.03 | 73 | 1013.4 |
| 20260903024504 | 85 | 0 | 0.0 | 0.0 | 0.00 | 0.03 | 0.03 | 74 | 1013.2 |
| 20260903024003 | 85 | 0 | 0.0 | 0.0 | 0.00 | 0.03 | 0.03 | 73 | 1013.0 |
| 20260903023503 | 85 | 0 | 0.0 | 0.0 | 0.00 | 0.03 | 0.03 | 72 | 1012.9 |
| 20260903023004 | 85 | 0 | 0.0 | 0.0 | 0.00 | 0.03 | 0.03 | 72 | 1012.9 |
| 20260903022504 | 85 | 0 | 0.0 | 0.0 | 0.00 | 0.03 | 0.03 | 71 | 1012.8 |
| 20260903022004 | 85 | 0 | 0.0 | 0.0 | 0.00 | 0.03 | 0.03 | 71 | 1012.6 |
| 20260903021503 | 85 | 0 | 0.0 | 0.0 | 0.00 | 0.03 | 0.03 | 71 | 1012.6 |
| 20260903021004 | 85 | 0 | 0.0 | 0.0 | 0.00 | 0.03 | 0.03 | 71 | 1012.5 |
| 20260903020504 | 85 | 0 | 0.0 | 0.0 | 0.00 | 0.03 | 0.03 | 71 | 1012.4 |
| 20260903020003 | 85 | 0 | 0.0 | 0.0 | 0.00 | 0.03 | 0.03 | 71 | 1012.2 |
| 20260903015503 | 86 | 0 | 0.0 | 0.0 | 0.00 | 0.03 | 0.03 | 71 | 1012.2 |
| 20260903015004 | 86 | 0 | 0.0 | 2.0 | 0.00 | 0.03 | 0.03 | 71 | 1012.1 |
| 20260903014504 | 86 | 0 | 0.0 | 2.0 | 0.00 | 0.03 | 0.03 | 70 | 1012.1 |
| 20260903014003 | 86 | 0 | 0.0 | 2.0 | 0.00 | 0.03 | 0.03 | 70 | 1012.1 |
| 20260903013504 | 86 | 0 | 0.0 | 1.0 | 0.00 | 0.03 | 0.03 | 70 | 1012.0 |
| 20260903013004 | 86 | 0 | 0.0 | 1.0 | 0.00 | 0.03 | 0.03 | 69 | 1012.0 |
| 20260903012504 | 87 | 0 | 0.0 | 1.0 | 0.00 | 0.03 | 0.03 | 68 | 1012.0 |
| 20260903012003 | 87 | 0 | 0.0 | 1.0 | 0.00 | 0.03 | 0.03 | 69 | 1012.1 |
| 20260903011504 | 87 | 0 | 0.0 | 1.0 | 0.00 | 0.03 | 0.03 | 69 | 1012.1 |
| 20260903011004 | 87 | 0 | 0.0 | 3.0 | 0.00 | 0.03 | 0.03 | 67 | 1012.0 |
| 20260903010503 | 87 | 0 | 0.0 | 3.0 | 0.00 | 0.03 | 0.03 | 66 | 1011.9 |
| 20260903010004 | 87 | 0 | 0.0 | 0.0 | 0.00 | 0.03 | 0.03 | 68 | 1012.0 |
| 20260903005504 | 87 | 0 | 0.0 | 0.0 | 0.00 | 0.03 | 0.03 | 67 | 1012.0 |
| 20260903005004 | 87 | 0 | 0.0 | 0.0 | 0.00 | 0.03 | 0.03 | 66 | 1012.0 |
| 20260903004504 | 86 | 0 | 0.0 | 0.0 | 0.00 | 0.03 | 0.03 | 67 | 1012.0 |
| 20260903004004 | 86 | 0 | 0.0 | 0.0 | 0.00 | 0.03 | 0.03 | 68 | 1011.9 |
| 20260903003504 | 86 | 0 | 0.0 | 1.0 | 0.00 | 0.03 | 0.03 | 69 | 1012.0 |
| 20260903003004 | 86 | 0 | 0.0 | 2.0 | 0.00 | 0.03 | 0.03 | 68 | 1012.0 |
| 20260903002503 | 86 | 0 | 0.0 | 2.0 | 0.02 | 0.03 | 0.03 | 69 | 1012.0 |
| 20260903002004 | 86 | 125 | 1.0 | 3.0 | 0.03 | 0.03 | 0.03 | 69 | 1012.0 |
| 20260903001504 | 86 | 125 | 1.0 | 4.0 | 0.03 | 0.03 | 0.03 | 69 | 1012.0 |
| 20260903001003 | 85 | 126 | 1.0 | 7.0 | 0.03 | 0.03 | 0.03 | 71 | 1012.0 |
| 20260903000503 | 85 | 123 | 1.0 | 7.0 | 0.03 | 0.03 | 0.03 | 71 | 1012.0 |
| 20260903000004 | 85 | 118 | 1.0 | 3.0 | 0.03 | 0.03 | 0.03 | 73 | 1012.0 |
| 20260902235504 | 85 | 118 | 1.0 | 7.0 | 0.03 | 0.03 | 0.03 | 72 | 1012.0 |
| 20260902235003 | 86 | 110 | 2.0 | 8.0 | 0.03 | 0.03 | 0.03 | 70 | 1012.1 |
| 20260902234504 | 87 | 97 | 2.0 | 8.0 | 0.03 | 0.03 | 0.03 | 69 | 1012.3 |
| 20260902234004 | 89 | 91 | 3.0 | 7.0 | 0.03 | 0.03 | 0.03 | 63 | 1012.2 |
| 20260902233504 | 91 | 99 | 2.0 | 6.0 | 0.03 | 0.03 | 0.03 | 58 | 1012.1 |
| 20260902233003 | 95 | 125 | 1.0 | 3.0 | 0.02 | 0.02 | 0.02 | 56 | 1012.0 |
| 20260902232504 | 99 | 156 | 1.0 | 3.0 | 0.01 | 0.01 | 0.01 | 50 | 1012.1 |
| 20260902232004 | 100 | 179 | 1.0 | 3.0 | 0.00 | 0.00 | 0.00 | 41 | 1011.9 |
| 20260902231503 | 100 | 0 | 0.0 | 2.0 | 0.00 | 0.00 | 0.00 | 39 | 1011.8 |
| 20260902230504 | 101 | 181 | 1.0 | 4.0 | 0.00 | 0.00 | 0.00 | 40 | 1011.6 |
| 20260902225504 | 101 | 183 | 1.0 | 4.0 | 0.00 | 0.00 | 0.00 | 39 | 1011.6 |
| 20260902225003 | 101 | 175 | 1.0 | 6.0 | 0.00 | 0.00 | 0.00 | 40 | 1011.6 |
| 20260902223003 | 102 | 164 | 1.0 | 4.0 | 0.00 | 0.00 | 0.00 | 39 | 1011.7 |
| 20260902222004 | 103 | 162 | 1.0 | 5.0 | 0.00 | 0.00 | 0.00 | 38 | 1011.8 |
| 20260902221504 | 103 | 163 | 1.0 | 4.0 | 0.00 | 0.00 | 0.00 | 39 | 1011.8 |
| 20260902220504 | 103 | 179 | 1.0 | 7.0 | 0.00 | 0.00 | 0.00 | 36 | 1011.9 |
| 20260902220004 | 103 | 183 | 1.0 | 4.0 | 0.00 | 0.00 | 0.00 | 38 | 1011.9 |
| 20260902215503 | 103 | 182 | 1.0 | 3.0 | 0.00 | 0.00 | 0.00 | 38 | 1011.9 |
| 20260902215003 | 103 | 182 | 1.0 | 3.0 | 0.00 | 0.00 | 0.00 | 36 | 1011.9 |
| 20260902214504 | 103 | 183 | 1.0 | 4.0 | 0.00 | 0.00 | 0.00 | 36 | 1012.0 |
| 20260902214004 | 102 | 184 | 1.0 | 4.0 | 0.00 | 0.00 | 0.00 | 37 | 1012.0 |
| 20260902213503 | 102 | 184 | 1.0 | 3.0 | 0.00 | 0.00 | 0.00 | 38 | 1012.1 |
| 20260902213004 | 102 | 182 | 1.0 | 4.0 | 0.00 | 0.00 | 0.00 | 38 | 1012.1 |
| 20260902212504 | 102 | 181 | 1.0 | 4.0 | 0.00 | 0.00 | 0.00 | 38 | 1012.2 |
| 20260902212003 | 101 | 178 | 1.0 | 4.0 | 0.00 | 0.00 | 0.00 | 38 | 1012.1 |
| 20260902211504 | 101 | 0 | 0.0 | 4.0 | 0.00 | 0.00 | 0.00 | 38 | 1012.1 |
| 20260902211004 | 102 | 0 | 0.0 | 6.0 | 0.00 | 0.00 | 0.00 | 37 | 1012.2 |
| 20260902210003 | 102 | 145 | 1.0 | 4.0 | 0.00 | 0.00 | 0.00 | 38 | 1012.4 |